Flag for Switzerland Weather past 2 weeks in Vevey, Vaud, Switzerland

Now
76 °F

Mild.


Feels Like: 78 °F
Forecast: 69 / 91 °F
Wind: 3 mph from Southwest

Location: Aigle

Current Time: Jul 6, 2015 at 1:30:59 AM

Latest Report: Jul 6, 2015 at 12:00 AM


Visibility: N/A

Pressure: 30.04 "Hg

Humidity: 61%

Dew point: 62 °F

Location of VeveyLocation

Historic Weather in Vevey — Graph

°F

Vevey temperature yesterday

Maximum temperature yesterday: 97 °F (at 7:00 PM)
Minimum temperature yesterday: 66 °F (at 6:00 AM)
Average temperature yesterday: 80 °F

Past Weeks' High & Low Weather Summary

 TemperatureHumidityPressure
High97 °F (Jul 5, 7:00 PM)97% (Jun 23, 7:00 AM)30.23 "Hg (Jun 23, 7:00 AM)
Low47 °F (Jun 24, 7:00 AM)16% (Jul 5, 7:00 PM)29.77 "Hg (Jun 22, 10:00 PM)
Average70 °F65%30.08 "Hg
* Reported Midnight between Jun 20 and Jun 21 — Midnight between Jul 5 and Jul 6, Vevey, Weather by CustomWeather, © 2015

Note: Actual official high and low records may vary slightly from our data, if they occured in-between our weather recording intervals... More about our weather records

Advertising

Vevey weather history for previous 24 hours

 ConditionsComfort  
Time TempWeatherWind HumidityBarometerVisibility
12:00 AM
Mon, Jul 6
76 °FMild.3 mph61%30.04 "HgN/A
11:00 PM
Sun, Jul 5
75 °FMild.1 mph68%30.03 "HgN/A
10:00 PM77 °FMild.2 mph66%29.99 "HgN/A
9:00 PM80 °FWarm.2 mph55%29.95 "HgN/A
8:00 PM90 °FScattered clouds.3 mph39%29.91 "Hg11 mi
7:00 PM97 °FExtremely hot.7 mph16%29.89 "HgN/A
6:00 PM89 °FHot.10 mph38%29.90 "HgN/A
5:00 PM89 °FPassing clouds.13 mph43%29.90 "Hg12 mi
4:00 PM92 °FHot.9 mph37%29.90 "HgN/A
3:00 PM92 °FHot.1 mph45%29.91 "HgN/A
2:00 PM90 °FScattered clouds.7 mph37%29.96 "Hg12 mi
1:00 PM85 °FWarm.12 mph50%30.02 "HgN/A
12:00 PM85 °FWarm.12 mph52%30.00 "HgN/A
11:00 AMN/ASunny.N/AN/AN/A16 mi
10:00 AM84 °FWarm.3 mph44%30.01 "HgN/A
9:00 AM82 °FWarm.8 mph45%30.03 "HgN/A
8:00 AM76 °FSunny.3 mph61%30.05 "Hg16 mi
7:00 AM67 °FMild.1 mph83%30.09 "HgN/A
6:00 AM66 °FMild.3 mph86%30.09 "HgN/A
4:00 AM71 °FMild.1 mph71%30.09 "HgN/A
3:00 AM68 °FMild.3 mph84%30.09 "HgN/A
2:00 AM71 °FMild.5 mph76%30.09 "HgN/A
1:00 AM73 °FMild.2 mph69%30.09 "HgN/A
Weather by CustomWeather, © 2015

See weather overviewHow to use our weather pages